Powrót do katalogu

STARLINK-30953

AktywnyŁącznośćVLEO
NORAD 58491·PAYLOAD·🇺🇸 United States

Wystrzelony Dec 3, 2023 z Cape Canaveral Space Force Station

Loading…

Następne Przeloty (najbliższe 24 godziny)

TLE

ŚwieżeSource: CelesTrak SupGP

Epoka: Sep 15, 2026, 02:47 UTC

1 58491C 23186U   26258.11645833  .00000154  00000+0  55839-5 0  2583
2 58491  42.9999 277.7215 0001451 262.5880 345.5209 15.27581752    16

Śledź STARLINK-30953 w czasie rzeczywistym z AllMySat

Download on the App Store